星链-3602 (STARLINK-3602 )

导读

STARLINK-3602是美国太空探索技术公司Starlink卫星互联网项目中的一颗卫星,于2022年2月25日发射升空。它属于星链星座组网卫星,旨在为全球提供低延迟、高速率的宽带互联网服务,运行在近地轨道,助力星链完成全球网络覆盖的部署目标。

Basic Information
目录编号:
51791
目录名称:
STARLINK-3602
国际标识:
2022-017Z
轨道中心:
EARTH
卫星名称:
星链-3602
卫星全名:
星链-3602 (STARLINK-3602 )
卫星状态:
在轨 (已飞行1573 天)
发射日期:
2022-02-25 UTC
国别 :
美国 (US)
星等 :
--
Orbit Information
数据来源 国际轨道数据 AOE轨道数据
星历时间 2026-06-17T17:51:15+0800
9小时前
查看轨道信息
2026-06-15T23:00:00+0800
2天前
查看轨道信息
半长轴 6917.9km 6917.899km
偏心率 0.0001211 0.000141
轨道倾角 53.160° 53.155°
近地点辐角 90.361° 70.624°
升交点赤经 261.358° 269.385°
平近点角 269.752° 305.187°
近地点 538.925km 538.786km
远地点 540.601km 540.738km
周期 95.438分钟 95.438分钟
每日圈数 15.088337 15.088342
Detailed Information
固有亮度:
5
最大亮度:
2.5
卫星平台:
Starlink v1.5
覆盖范围:
全球
运营商:
太空探索技术公司
运营商所在国:
美国
制造商(研发单位):
太空探索技术公司
制造商所在国:
美国
使用方式:
暂无
Satellite Introduction
星链(Starlink)计划是由太空探索技术公司(SpaceX)提出的一个巨型低轨卫星互联网星座项目,计划在2019年至2024年间在太空搭建由约1.2万颗卫星组成的“星链”网络,其中1584颗将部署在地球上空550千米处的近地轨道,并从2020年开始工作。该卫星仍在工作。
2D Orbit Map
3D Orbit Map
Orbit Altitude Analysis Chart
Orbit Inclination Analysis Chart
Orbit Comprehensive Analysis Chart
View Comprehensive Chart